Location: Kott?ru
(16.6209°N, 80.6208°E)
Time: 20:06:30
(UTC+00:00)

Envisat - Visible Passes

Search period start: 30 November 2020 00:00
Search period end: 10 December 2020 00:00
Orbit: 764 x 766 km, 98.1° (Epoch: 30 November)

Date Brightness Start Highest point End Pass type
(mag) Time Alt. Az. Time Alt. Az. Time Alt. Az.
01 Dec 6.2 13:10:19 10° SW 13:12:40 13° W 13:15:01 10° WNW visible
01 Dec 4.4 23:50:58 10° NNE 23:55:45 42° E 00:00:31 10° S visible
02 Dec 4.8 12:31:11 10° SSW 12:35:49 36° W 12:40:28 10° NNW visible
02 Dec 6.1 23:16:00 10° ENE 23:18:54 15° E 23:21:48 10° SE visible
04 Dec 3.1 00:16:03 10° NNE 00:21:08 86° ESE 00:26:13 10° S visible
04 Dec 6.0 12:57:51 10° SW 13:01:15 18° W 13:04:40 10° NW visible
04 Dec 5.0 23:39:54 10° NE 23:44:22 31° E 23:48:48 10° SSE visible
05 Dec 4.2 12:19:32 10° S 12:24:26 49° W 12:29:20 10° NNW visible
05 Dec 6.3 23:06:14 10° E 23:07:30 11° E 23:08:45 10° ESE visible
07 Dec 3.5 00:04:44 10° NNE 00:09:46 64° ESE 00:14:47 10° S visible
07 Dec 5.6 12:45:47 10° SSW 12:49:52 24° W 12:53:56 10° NW visible
07 Dec 5.5 23:28:59 10° NE 23:32:57 23° E 23:36:55 10° SSE visible
09 Dec 3.0 00:30:07 10° N 00:35:07 63° WNW 00:40:07 10° SSW visible
09 Dec 6.3 13:13:34 10° WSW 13:15:19 12° W 13:17:03 10° WNW visible
